Notices

Please take our survey and provide feedback: https://eccc.sondage-survey.ca/f/LanguageSelection.aspx?s=442ca660-fcf1-47c0-95a9-59707d6fd709

Please note that the IDF dataset is available through this link: Intensity-Duration-Frequency (IDF) Files .

Hourly Data Report for November 17, 2020

SHEARWATER RCS
NOVA SCOTIA
Current Station Operator: ECCC - MSC

44°37'47.000" N
63°30'48.000" W
24.00 m
8205092
71264
AAW

Download Data

Hourly Data (November 2020)
Hourly Data Report for November 17, 2020
TIME
LST
Temp Definition
°C
Dew Point Definition
°C
Rel Hum Definition
%
Precip. Amount Definition
mm

Wind Dir Definition
10's deg

Wind Spd Definition
km/h
Visibility Definition
km
Stn Press Definition
kPa
Hmdx Definition


Wind Chill Definition


Weather Definition


00:00 5.6 3.0 83 0.0 24 11   100.44     LegendNANA
01:00 5.7 3.2 84 0.0 24 10   100.47     LegendNANA
02:00 5.8 3.3 84 0.0 24 11   100.46     LegendNANA
03:00 5.2 2.9 85 0.0 25 4   100.44     LegendNANA
04:00 5.8 2.9 82 0.0 24 10   100.44     LegendNANA
05:00 6.0 3.1 81 0.0 25 8   100.43     LegendNANA
06:00 6.0 2.5 78 0.0 25 7   100.43     LegendNANA
07:00 5.5 2.4 80 0.0 25 4   100.44     LegendNANA
08:00 5.8 2.9 81 0.0 24 4   100.45     LegendNANA
09:00 5.9 2.0 76 0.0 26 11   100.50     LegendNANA
10:00 6.4 2.5 76 0.0 27 7   100.48     LegendNANA
11:00 7.1 1.6 68 0.0 27 11   100.45     LegendNANA
12:00 7.0 0.1 61 0.0 30 14   100.36     LegendNANA
13:00 7.3 -0.3 58 0.0 30 9   100.31     LegendNANA
14:00 7.2 -1.0 56 0.0 29 14   100.31     LegendNANA
15:00 7.1 -0.8 57 0.0 28 10   100.33     LegendNANA
16:00 6.5 -1.9 55 0.0 29 11   100.38     LegendNANA
17:00 5.7 -1.7 59 0.0 27 10   100.45     LegendNANA
18:00 4.8 -1.1 65 0.0 25 9   100.48     LegendNANA
19:00 4.5 -2.4 61 0.0 27 10   100.52     LegendNANA
20:00 4.2 -2.9 60 0.0 29 10   100.54     LegendNANA
21:00 3.9 -2.3 64 0.0 26 9   100.58     LegendNANA
22:00 3.4 -3.8 59 0.0 29 13   100.67     LegendNANA
23:00 2.9 -4.0 61 0.0 27 11   100.68     LegendNANA

Notes on Data Quality.

Legend

  • E = Estimated
  • M = Missing
  • NA = Not Available*
  • [empty] = Indicates an unobserved value
Date modified: